Location: Newark
(51.0089°N, 21.5817°E)
Time: 14:08:06
(UTC+00:00)

First-Move - Visible Passes

Search period start: 18 February 2020 00:00
Search period end: 28 February 2020 00:00
Orbit: 578 x 668 km, 97.6° (Epoch: 17 February)

Date Brightness Start Highest point End Pass type
(mag) Time Alt. Az. Time Alt. Az. Time Alt. Az.
18 Feb ? 03:30:26 10° NE 03:33:24 17° E 03:36:22 10° SE visible
18 Feb ? 05:05:30 10° N 05:10:06 71° WNW 05:14:40 10° SSW visible
19 Feb ? 03:48:01 10° NE 03:51:46 24° E 03:55:29 10° SE visible
19 Feb ? 16:23:54 10° SSW 16:27:52 34° W 16:31:58 10° NNW visible
20 Feb ? 04:05:52 10° NNE 04:10:05 34° E 04:14:16 10° SSE visible
20 Feb ? 16:42:39 10° SW 16:46:11 24° W 16:49:49 10° NW visible
21 Feb ? 04:23:51 10° NNE 04:28:21 50° E 04:32:48 10° S visible
21 Feb ? 17:01:43 10° SW 17:04:33 17° W 17:07:26 10° NW visible
22 Feb ? 03:08:52 10° ENE 03:09:32 10° E 03:10:13 10° E visible
22 Feb ? 04:41:56 10° NNE 04:46:34 73° ESE 04:51:08 10° S visible
22 Feb ? 17:21:34 10° WSW 17:22:58 11° W 17:24:22 10° WNW visible
23 Feb ? 03:25:16 10° NE 03:27:58 15° E 03:30:40 10° ESE visible
24 Feb ? 03:42:46 10° NE 03:46:21 22° E 03:49:53 10° SE visible
25 Feb ? 04:00:33 10° NNE 04:04:40 31° E 04:08:44 10° SSE visible
25 Feb ? 16:36:59 10° SSW 16:40:44 26° W 16:44:34 10° NW visible
26 Feb ? 04:18:30 10° NNE 04:22:56 45° E 04:27:18 10° S visible
26 Feb ? 16:55:57 10° SW 16:59:04 19° W 17:02:16 10° NW visible
27 Feb ? 04:36:34 10° NNE 04:41:10 66° ESE 04:45:41 10° S visible
27 Feb ? 17:15:27 10° WSW 17:17:29 13° W 17:19:31 10° WNW visible
